This is the latest recevied weather packets stored in our database for station/object K4AGR-13. If no packets are shown the sender has not sent any weather packets the latest 10 day(s).
| Time | Temp. | Humidity | Pressure | Rain* | Wind** | Luminosity | Snow |
|---|---|---|---|---|---|---|---|
| 1777825152 | 21.67° C | 30% | 1021.1 hPa | 0 mm | - | 985 W/m² | - |
| 1777824848 | 21.67° C | 32% | 1021.1 hPa | 0 mm | - | 971 W/m² | - |
| 1777824545 | 21.11° C | 34% | 1021.2 hPa | 0 mm | - | 940 W/m² | - |
| 1777824241 | 21.11° C | 33% | 1021.2 hPa | 0 mm | - | 948 W/m² | - |
| 1777823937 | 22.22° C | 31% | 1021.2 hPa | 0 mm | - | 945 W/m² | - |
| 1777823635 | 22.22° C | 33% | 1021.3 hPa | 0 mm | - | 925 W/m² | - |
| 1777823331 | 21.67° C | 33% | 1021.3 hPa | 0 mm | - | 924 W/m² | - |
| 1777823029 | 21.67° C | 32% | 1021.1 hPa | 0 mm | - | 905 W/m² | - |
| 1777822727 | 21.67° C | 32% | 1021.1 hPa | 0 mm | - | 846 W/m² | - |
| 1777822425 | 21.11° C | 34% | 1021.3 hPa | 0 mm | - | 879 W/m² | - |
| 1777822122 | 21.67° C | 36% | 1021.3 hPa | 0 mm | - | 835 W/m² | - |
| 1777821820 | 20.56° C | 37% | 1021.2 hPa | 0 mm | - | 854 W/m² | - |
| 1777821517 | 20.56° C | 35% | 1021.1 hPa | 0 mm | - | 834 W/m² | - |
| 1777821214 | 20.56° C | 35% | 1021.3 hPa | 0 mm | - | 825 W/m² | - |
| 1777820911 | 20.56° C | 34% | 1021.2 hPa | 0 mm | - | 817 W/m² | - |
| 1777820607 | 21.11° C | 35% | 1021.3 hPa | 0 mm | - | 798 W/m² | - |
| 1777820304 | 20.56° C | 38% | 1021.1 hPa | 0 mm | - | 780 W/m² | - |
| 1777820002 | 20.56° C | 37% | 1021.1 hPa | 0 mm | - | 766 W/m² | - |
| 1777819698 | 20.56° C | 38% | 1021.2 hPa | 0 mm | - | 750 W/m² | - |
| 1777819397 | 20° C | 37% | 1021 hPa | 0 mm | - | 735 W/m² | - |
| 1777819094 | 20° C | 40% | 1020.9 hPa | 0 mm | - | 717 W/m² | - |
| 1777818790 | 19.44° C | 44% | 1021 hPa | 0 mm | - | 699 W/m² | - |
| 1777818487 | 19.44° C | 45% | 1020.9 hPa | 0 mm | - | 681 W/m² | - |
| 1777818183 | 19.44° C | 44% | 1020.9 hPa | 0 mm | - | 663 W/m² | - |
| 1777817880 | 18.89° C | 46% | 1020.8 hPa | 0 mm | - | 644 W/m² | - |
* Rain latest hour (hover to see other rain measurements)
** Current wind speed in m/s (hover to see current wind gust speed)